Terminal Aerodrome Forecast
Issued by NWS Wilmington, OH

Current Version | Previous Version | Graphics & Text | Print | Product List | Glossary On
Versions: 1 2 3 4 5 6 7 8 9 10 11 12 13 14
000
FTUS41 KILN 200900 AAA
TAFDAY
TAF AMD
KDAY 200900Z 2009/2106 00000KT P6SM SKC
     FM201300 17006KT P6SM FEW250
     FM210000 15005KT P6SM BKN250=

USA.gov is the U.S. government's official web portal to all federal, state and local government web resources and services.